#timestamp,LO_Frequency,Hit,StdDev 
1634612415.5,286047001.9,N
1634612435.3,286047002.5,N
1634612455.1,286047002.3,N
1634612475.9,286046999.8,N
1634612495.7,286047002.5,N
1634612515.5,286047004.0,Y
1634612535.4,286047002.8,P
1634612555.2,286047002.4,P
1634612575.0,286047003.7,P
1634612575.9,286047003.7,Y
1634612595.8,286046999.0,P
1634612615.6,286046996.8,N
1634612635.4,286046995.1,N
1634612655.3,286046995.6,N
1634612675.1,286046995.2,N
1634612695.8,286046993.7,N
1634612715.7,286046995.4,N
1634612735.5,286046997.6,N
1634612755.3,286046995.3,N
1634612775.2,286046997.1,N
1634612795.0,286046999.0,N
1634612795.9,286046999.0,N
1634612815.7,286047000.5,N
1634612835.6,286047000.3,N
1634612855.4,286047002.3,N
1634612875.2,286047002.3,N
1634612895.1,286047002.0,N
1634612896.0,286047002.0,N
1634612915.8,286047002.1,N
1634612935.6,286047001.0,N
1634612955.5,286046998.6,N
1634612975.3,286046998.3,N
1634612995.1,286047001.0,N
1634613015.9,286046998.4,N
1634613035.7,286047000.0,N
1634613055.5,286046999.9,N
1634613075.4,286047002.5,N
1634613095.2,286047002.8,N
1634613115.0,286046999.8,N
1634613115.9,286046999.8,N
1634613135.8,286047000.9,N
1634613155.6,286047002.4,N
1634613175.4,286047002.0,N
1634613195.3,286047002.8,N
1634613215.1,286047002.4,N
1634613235.8,286046999.3,N
1634613255.7,286046998.1,N
1634613275.5,286046999.2,N
1634613295.3,286046999.4,N
1634613315.2,286047000.9,N
1634613335.9,286047002.4,N
1634613355.7,286047000.1,N
1634613375.6,286047002.8,N
1634613395.4,286047000.1,N
1634613415.2,286047002.4,N
1634613435.1,286047002.2,N
1634613436.0,286047002.2,N
1634613455.8,286047002.0,N
1634613475.6,286046999.2,N
1634613495.5,286047000.8,N
1634613515.3,286047000.2,N
1634613535.1,286046999.1,N
1634613555.9,286047002.8,N
1634613575.7,286047000.1,N
1634613595.5,286047000.7,N
1634613615.4,286047000.4,N
1634613635.2,286047004.4,Y
1634613655.0,286047002.3,P
1634613685.9,286047002.0,E
1634613695.9,286046999.9,N
1634613715.7,286047000.4,P
1634613735.5,286047000.1,N
1634613755.4,286047002.4,Y
1634613775.2,286047003.9,P
1634613795.0,286047002.1,N
1634613795.9,286047002.1,N
1634613815.8,286047002.0,N
1634613835.6,286046999.7,N
1634613855.4,286047000.0,N
1634613875.3,286046999.3,N
1634613895.1,286047001.2,N
1634613896.0,286047001.2,N
1634613915.8,286047002.6,N
1634613935.7,286046999.8,N
1634613955.5,286047002.4,N
1634613975.3,286047001.6,N
1634613995.2,286047001.4,N
1634614015.9,286047001.5,N
1634614035.7,286047003.9,Y
1634614055.6,286047001.9,P
1634614075.4,286047001.6,P
1634614095.2,286047001.9,P
1634614115.1,286047003.5,Y
1634614116.0,286047003.5,P
1634614135.8,286047000.1,N
1634614155.6,286047000.5,N
1634614175.5,286046999.8,N
1634614195.3,286047001.1,N
1634614215.1,286047000.0,N
1634614235.9,286047002.4,N
1634614255.7,286047000.0,N
1634614275.5,286047000.4,N
1634614295.4,286047000.5,N
1634614315.2,286047000.2,N
1634614335.0,286047000.0,N
1634614335.9,286047000.0,N
1634614355.8,286046999.9,N
1634614375.6,286046999.9,N
1634614395.4,286047000.7,N
1634614415.3,286047000.3,N
1634614435.1,286046998.9,N
1634614436.0,286046998.9,N
1634614455.8,286046996.7,Y
1634614475.7,286047000.5,P
1634614495.5,286047002.5,P
1634614515.3,286047000.0,N
1634614535.2,286047001.1,N
1634614555.9,286047001.7,N
1634614575.7,286047002.6,Y
1634614595.6,286047002.5,P
1634614615.4,286047002.4,P
1634614635.2,286047000.2,N
1634614655.1,286046998.2,N
1634614656.0,286046998.2,N
1634614675.8,286047001.1,N
1634614695.6,286047000.0,N
1634614715.5,286047002.5,N
1634614735.3,286047001.5,N
1634614755.1,286047001.3,N
1634614775.9,286047004.4,N
1634614795.7,286047001.7,N
1634614815.5,286047005.5,Y
1634614835.4,286047001.7,P
1634614855.2,286047001.4,P
1634614875.0,286047000.7,P
1634614875.9,286047000.7,N
1634614895.8,286046998.3,Y
1634614915.6,286047002.1,P
1634614935.4,286047002.0,P
1634614955.3,286047002.0,P
1634614975.1,286047001.4,Y
1634614995.8,286047000.8,P
1634615015.7,286047000.7,N
1634615035.5,286047000.4,N
1634615055.3,286046997.2,Y
1634615075.2,286046995.4,P
1634615095.9,286046999.1,N
1634615115.7,286046999.0,N
1634615135.6,286046998.3,N
1634615155.4,286046998.3,N
1634615175.2,286047000.0,N
1634615195.1,286047002.6,N
1634615196.0,286047002.6,N
1634615215.8,286047000.0,N
1634615235.6,286047002.3,N
1634615255.5,286047001.0,N
1634615275.3,286046996.8,N
1634615295.1,286046998.4,N
1634615315.9,286046999.4,N
1634615335.7,286046998.6,N
1634615355.5,286046998.7,N
1634615375.4,286046998.8,N
1634615395.2,286047002.7,N
1634615415.0,286047002.8,N
1634615415.9,286047002.8,N
1634615435.8,286047000.1,N
1634615455.6,286047003.9,N
1634615475.4,286047004.0,N
1634615495.3,286047004.0,N
1634615515.1,286047001.9,N
1634615516.0,286047001.9,N
1634615535.8,286047000.3,N
1634615555.7,286047002.3,N
1634615575.5,286047002.2,N
1634615595.3,286047000.1,N
1634615615.2,286047003.8,N
1634615635.9,286047001.4,N
1634615655.7,286047003.9,N
1634615675.6,286047001.3,N
1634615695.4,286047001.8,N
1634615715.2,286047001.8,N
1634615735.1,286047001.5,N
1634615736.0,286047001.5,N
1634615755.8,286047004.2,N
1634615775.6,286047001.3,N
1634615795.5,286047001.8,N
1634615815.3,286047004.2,N
1634615835.1,286047001.7,N
1634615855.9,286047004.2,N
1634615875.7,286047003.6,N
1634615895.5,286047003.8,N
1634615915.4,286047003.4,N
1634615935.2,286047003.7,N
1634615955.0,286047003.1,N
1634615955.9,286047003.1,N
1634615975.8,286047003.4,N
1634615995.6,286047003.3,N
